| time (UTC) | temp C | wind direction | speed KPH | gust KPH | rain 1hr cm | rain 24hr cm | rain mn cm | humidity % | barometer mb |
| 20260503050140 | 6 | 158 | 0.0 | 0.0 | 0.00 | 0.00 | 0.00 | 97 | 1015.5 |
| 20260503045637 | 6 | 158 | 0.0 | 0.0 | 0.00 | 0.00 | 0.00 | 97 | 1015.6 |
| 20260503045134 | 7 | 158 | 0.0 | 0.0 | 0.00 | 0.00 | 0.00 | 97 | 1015.6 |
| 20260503044631 | 7 | 158 | 0.0 | 0.0 | 0.00 | 0.00 | 0.00 | 97 | 1015.5 |
| 20260503044129 | 7 | 158 | 0.0 | 0.0 | 0.00 | 0.00 | 0.00 | 97 | 1015.8 |
| 20260503043625 | 7 | 158 | 0.0 | 0.0 | 0.00 | 0.00 | 0.00 | 97 | 1015.9 |
| 20260503043122 | 7 | 158 | 0.0 | 0.0 | 0.00 | 0.00 | 0.00 | 97 | 1015.5 |
| 20260503042619 | 7 | 158 | 0.0 | 0.0 | 0.00 | 0.00 | 0.00 | 97 | 1015.5 |
| 20260503042114 | 7 | 158 | 0.0 | 0.0 | 0.00 | 0.00 | 0.00 | 97 | 1015.6 |
| 20260503041611 | 7 | 158 | 0.0 | 0.0 | 0.00 | 0.00 | 0.00 | 97 | 1015.5 |
| 20260503041109 | 7 | 158 | 0.0 | 0.0 | 0.00 | 0.00 | 0.00 | 97 | 1015.4 |
| 20260503040606 | 7 | 158 | 0.0 | 0.0 | 0.00 | 0.00 | 0.00 | 96 | 1015.4 |
| 20260503040103 | 7 | 158 | 0.0 | 0.0 | 0.00 | 0.36 | 0.36 | 96 | 1015.2 |
| 20260503035600 | 7 | 158 | 0.0 | 0.0 | 0.00 | 0.36 | 0.36 | 96 | 1015.3 |
| 20260503035058 | 7 | 158 | 0.0 | 0.0 | 0.00 | 0.36 | 0.36 | 96 | 1015.2 |
| 20260503034555 | 7 | 158 | 0.0 | 0.0 | 0.00 | 0.36 | 0.36 | 96 | 1015.3 |
| 20260503034052 | 7 | 158 | 0.0 | 0.0 | 0.00 | 0.36 | 0.36 | 96 | 1015.3 |
| 20260503033549 | 7 | 158 | 0.0 | 0.0 | 0.00 | 0.36 | 0.36 | 96 | 1015.4 |
| 20260503033047 | 7 | 158 | 0.0 | 0.0 | 0.00 | 0.36 | 0.36 | 96 | 1015.3 |
| 20260503032545 | 8 | 158 | 0.0 | 0.0 | 0.00 | 0.36 | 0.36 | 96 | 1015.2 |
| 20260503032043 | 8 | 158 | 0.0 | 0.0 | 0.00 | 0.36 | 0.36 | 96 | 1015.2 |
| 20260503031540 | 8 | 158 | 0.0 | 0.0 | 0.00 | 0.36 | 0.36 | 96 | 1014.9 |
| 20260503031037 | 8 | 158 | 0.0 | 0.0 | 0.00 | 0.36 | 0.36 | 96 | 1015.1 |
| 20260503030533 | 8 | 158 | 0.0 | 0.0 | 0.00 | 0.36 | 0.36 | 96 | 1015.1 |
| 20260503030031 | 8 | 158 | 0.0 | 0.0 | 0.00 | 0.36 | 0.36 | 96 | 1015.0 |
| 20260503025527 | 8 | 158 | 0.0 | 0.0 | 0.00 | 0.36 | 0.36 | 96 | 1015.0 |
| 20260503025025 | 8 | 158 | 0.0 | 0.0 | 0.00 | 0.36 | 0.36 | 96 | 1014.9 |
| 20260503024521 | 8 | 158 | 0.0 | 0.0 | 0.00 | 0.36 | 0.36 | 96 | 1014.7 |
| 20260503024018 | 8 | 158 | 0.0 | 0.0 | 0.00 | 0.36 | 0.36 | 96 | 1014.8 |
| 20260503023515 | 8 | 158 | 0.0 | 0.0 | 0.00 | 0.36 | 0.36 | 96 | 1014.8 |
| 20260503023013 | 8 | 158 | 0.0 | 0.0 | 0.00 | 0.36 | 0.36 | 96 | 1014.6 |
| 20260503022508 | 8 | 158 | 0.0 | 0.0 | 0.00 | 0.36 | 0.36 | 96 | 1014.5 |
| 20260503022003 | 9 | 158 | 0.0 | 0.0 | 0.00 | 0.36 | 0.36 | 96 | 1014.5 |
| 20260503021500 | 9 | 158 | 0.0 | 0.0 | 0.00 | 0.36 | 0.36 | 96 | 1014.5 |
| 20260503020957 | 9 | 158 | 0.0 | 0.0 | 0.00 | 0.36 | 0.36 | 96 | 1014.6 |
| 20260503020455 | 9 | 158 | 0.0 | 0.0 | 0.00 | 0.36 | 0.36 | 96 | 1014.5 |
| 20260503015951 | 9 | 158 | 0.0 | 0.0 | 0.00 | 0.36 | 0.36 | 96 | 1014.5 |
| 20260503015448 | 9 | 158 | 0.0 | 0.0 | 0.00 | 0.36 | 0.36 | 96 | 1014.5 |
| 20260503014944 | 9 | 158 | 0.0 | 0.0 | 0.00 | 0.36 | 0.36 | 96 | 1014.6 |
| 20260503014441 | 9 | 158 | 0.0 | 0.0 | 0.00 | 0.36 | 0.36 | 95 | 1014.7 |
| 20260503013939 | 9 | 158 | 0.0 | 0.0 | 0.00 | 0.36 | 0.36 | 95 | 1014.6 |
| 20260503013436 | 9 | 158 | 0.0 | 0.0 | 0.00 | 0.36 | 0.36 | 95 | 1014.3 |
| 20260503012933 | 9 | 158 | 0.0 | 0.0 | 0.00 | 0.36 | 0.36 | 95 | 1014.3 |
| 20260503012431 | 9 | 158 | 0.0 | 0.0 | 0.00 | 0.36 | 0.36 | 95 | 1014.1 |
| 20260503011927 | 9 | 158 | 0.0 | 0.0 | 0.00 | 0.36 | 0.36 | 95 | 1014.4 |
| 20260503011424 | 9 | 158 | 0.0 | 0.0 | 0.00 | 0.36 | 0.36 | 95 | 1014.3 |
| 20260503010921 | 9 | 158 | 0.0 | 0.0 | 0.00 | 0.36 | 0.36 | 95 | 1013.9 |
| 20260503010417 | 10 | 158 | 0.0 | 0.0 | 0.00 | 0.36 | 0.36 | 94 | 1014.1 |
| 20260503005914 | 10 | 158 | 0.0 | 0.0 | 0.00 | 0.36 | 0.36 | 94 | 1014.1 |
| 20260503005412 | 10 | 158 | 0.0 | 0.0 | 0.00 | 0.36 | 0.36 | 94 | 1013.9 |
| 20260503004908 | 10 | 158 | 0.0 | 0.0 | 0.00 | 0.36 | 0.36 | 94 | 1013.7 |
| 20260503004406 | 10 | 158 | 0.0 | 0.0 | 0.00 | 0.36 | 0.36 | 93 | 1013.7 |
| 20260503003903 | 10 | 158 | 0.0 | 0.0 | 0.00 | 0.36 | 0.36 | 93 | 1013.7 |
| 20260503003400 | 10 | 158 | 0.0 | 0.0 | 0.00 | 0.36 | 0.36 | 92 | 1013.7 |
| 20260503002857 | 10 | 158 | 0.0 | 0.0 | 0.00 | 0.36 | 0.36 | 92 | 1013.5 |
| 20260503002354 | 10 | 158 | 0.0 | 0.0 | 0.00 | 0.36 | 0.36 | 91 | 1013.5 |
| 20260503001850 | 11 | 158 | 0.0 | 0.0 | 0.00 | 0.36 | 0.36 | 90 | 1013.5 |
| 20260503001347 | 11 | 158 | 0.0 | 0.0 | 0.00 | 0.36 | 0.36 | 90 | 1013.3 |
| 20260503000844 | 11 | 158 | 0.0 | 0.0 | 0.00 | 0.36 | 0.36 | 90 | 1013.3 |
| 20260503000341 | 11 | 158 | 0.0 | 0.0 | 0.00 | 0.36 | 0.36 | 89 | 1013.2 |
| 20260502235838 | 11 | 158 | 0.0 | 0.0 | 0.00 | 0.36 | 0.36 | 88 | 1013.0 |
| 20260502235335 | 12 | 158 | 0.0 | 0.0 | 0.00 | 0.36 | 0.36 | 87 | 1013.2 |
| 20260502234832 | 12 | 158 | 0.0 | 0.0 | 0.00 | 0.36 | 0.36 | 86 | 1012.9 |
| 20260502234329 | 12 | 159 | 0.0 | 0.0 | 0.00 | 0.36 | 0.36 | 85 | 1012.7 |
| 20260502233826 | 12 | 159 | 0.0 | 0.0 | 0.00 | 0.36 | 0.36 | 85 | 1012.5 |
| 20260502233322 | 12 | 156 | 0.0 | 0.0 | 0.00 | 0.36 | 0.36 | 85 | 1012.6 |
| 20260502232819 | 12 | 141 | 0.0 | 0.0 | 0.00 | 0.36 | 0.36 | 86 | 1012.8 |
| 20260502232315 | 12 | 139 | 0.0 | 0.0 | 0.00 | 0.36 | 0.36 | 87 | 1012.7 |
| 20260502231812 | 12 | 139 | 0.0 | 0.0 | 0.00 | 0.36 | 0.36 | 86 | 1012.6 |
| 20260502231310 | 12 | 139 | 0.0 | 0.0 | 0.00 | 0.36 | 0.36 | 86 | 1012.7 |
| 20260502230808 | 12 | 138 | 0.0 | 0.0 | 0.00 | 0.36 | 0.36 | 86 | 1012.6 |
| 20260502230306 | 12 | 139 | 0.0 | 0.0 | 0.00 | 0.36 | 0.36 | 85 | 1012.5 |
| 20260502225802 | 12 | 140 | 0.0 | 0.0 | 0.00 | 0.36 | 0.36 | 86 | 1012.5 |
| 20260502225259 | 12 | 121 | 0.0 | 0.0 | 0.00 | 0.36 | 0.36 | 85 | 1012.4 |
| 20260502224755 | 12 | 115 | 0.0 | 0.0 | 0.00 | 0.36 | 0.36 | 85 | 1012.6 |
| 20260502224252 | 12 | 121 | 0.0 | 0.0 | 0.00 | 0.36 | 0.36 | 85 | 1012.6 |
| 20260502223749 | 12 | 128 | 0.0 | 0.0 | 0.00 | 0.36 | 0.36 | 85 | 1012.6 |
| 20260502223248 | 12 | 140 | 0.0 | 1.6 | 0.00 | 0.36 | 0.36 | 84 | 1012.6 |
| 20260502222745 | 12 | 119 | 0.0 | 0.0 | 0.00 | 0.36 | 0.36 | 84 | 1012.5 |
| 20260502222242 | 12 | 116 | 0.0 | 0.0 | 0.00 | 0.36 | 0.36 | 85 | 1012.6 |
| 20260502221737 | 12 | 93 | 0.0 | 0.0 | 0.00 | 0.36 | 0.36 | 84 | 1012.6 |
| 20260502221234 | 12 | 91 | 0.0 | 0.0 | 0.00 | 0.36 | 0.36 | 85 | 1012.5 |
| 20260502220731 | 12 | 90 | 0.0 | 0.0 | 0.00 | 0.36 | 0.36 | 85 | 1012.5 |
| 20260502220227 | 12 | 91 | 0.0 | 0.0 | 0.00 | 0.36 | 0.36 | 83 | 1012.4 |
| 20260502215724 | 12 | 173 | 0.0 | 0.0 | 0.00 | 0.36 | 0.36 | 83 | 1012.2 |
| 20260502215221 | 12 | 138 | 0.0 | 0.0 | 0.00 | 0.36 | 0.36 | 82 | 1012.2 |
| 20260502214718 | 12 | 163 | 0.0 | 1.6 | 0.00 | 0.36 | 0.36 | 82 | 1012.3 |
| 20260502214215 | 13 | 89 | 0.0 | 0.0 | 0.00 | 0.36 | 0.36 | 83 | 1012.4 |
| 20260502213713 | 13 | 113 | 0.0 | 0.0 | 0.00 | 0.36 | 0.36 | 82 | 1012.1 |
| 20260502213210 | 13 | 112 | 0.0 | 0.0 | 0.00 | 0.36 | 0.36 | 81 | 1012.0 |
| 20260502212708 | 13 | 359 | 0.0 | 0.0 | 0.00 | 0.36 | 0.36 | 80 | 1012.1 |
| 20260502212206 | 13 | 22 | 0.0 | 1.6 | 0.00 | 0.36 | 0.36 | 77 | 1012.3 |
| 20260502211702 | 13 | 33 | 0.0 | 0.0 | 0.00 | 0.36 | 0.36 | 78 | 1012.4 |
| 20260502211159 | 12 | 95 | 0.0 | 0.0 | 0.00 | 0.36 | 0.36 | 80 | 1012.2 |
| 20260502210656 | 12 | 66 | 0.0 | 0.0 | 0.00 | 0.36 | 0.36 | 79 | 1012.1 |
| 20260502210153 | 12 | 95 | 0.0 | 0.0 | 0.00 | 0.36 | 0.36 | 79 | 1012.0 |
| 20260502205650 | 12 | 80 | 0.0 | 0.0 | 0.00 | 0.36 | 0.36 | 79 | 1012.3 |
| 20260502205147 | 13 | 72 | 0.0 | 0.0 | 0.00 | 0.36 | 0.36 | 79 | 1012.2 |
| 20260502204643 | 13 | 53 | 1.6 | 1.6 | 0.00 | 0.36 | 0.36 | 77 | 1012.2 |
| 20260502204141 | 13 | 355 | 3.2 | 4.8 | 0.00 | 0.36 | 0.36 | 78 | 1012.4 |
| 20260502203638 | 13 | 41 | 0.0 | 1.6 | 0.00 | 0.36 | 0.36 | 77 | 1012.2 |
| 20260502203136 | 13 | 163 | 0.0 | 1.6 | 0.00 | 0.36 | 0.36 | 77 | 1012.4 |
| 20260502202631 | 13 | 355 | 3.2 | 4.8 | 0.00 | 0.36 | 0.36 | 77 | 1012.3 |
| 20260502202129 | 13 | 324 | 0.0 | 0.0 | 0.00 | 0.36 | 0.36 | 78 | 1012.4 |
| 20260502201625 | 13 | 38 | 1.6 | 1.6 | 0.00 | 0.36 | 0.36 | 77 | 1012.4 |
| 20260502201122 | 13 | 134 | 0.0 | 0.0 | 0.00 | 0.36 | 0.36 | 79 | 1012.3 |
| 20260502200618 | 13 | 198 | 1.6 | 1.6 | 0.00 | 0.36 | 0.36 | 76 | 1012.3 |
| 20260502200115 | 13 | 111 | 0.0 | 0.0 | 0.00 | 0.36 | 0.36 | 78 | 1012.2 |
| 20260502195614 | 13 | 6 | 6.4 | 9.7 | 0.00 | 0.36 | 0.36 | 77 | 1012.3 |
| 20260502195109 | 13 | 151 | 0.0 | 1.6 | 0.00 | 0.36 | 0.36 | 79 | 1012.5 |
| 20260502194606 | 13 | 356 | 4.8 | 4.8 | 0.00 | 0.36 | 0.36 | 78 | 1012.4 |
| 20260502194102 | 13 | 134 | 0.0 | 0.0 | 0.00 | 0.36 | 0.36 | 80 | 1012.5 |
| 20260502193600 | 13 | 77 | 0.0 | 1.6 | 0.00 | 0.36 | 0.36 | 79 | 1012.6 |
| 20260502193056 | 12 | 162 | 1.6 | 1.6 | 0.00 | 0.36 | 0.36 | 79 | 1012.7 |
| 20260502192551 | 12 | 129 | 1.6 | 1.6 | 0.00 | 0.36 | 0.36 | 80 | 1012.9 |
| 20260502192049 | 12 | 115 | 1.6 | 3.2 | 0.00 | 0.36 | 0.36 | 81 | 1012.8 |
| 20260502191546 | 12 | 152 | 0.0 | 0.0 | 0.00 | 0.36 | 0.36 | 83 | 1012.9 |
| 20260502191044 | 12 | 148 | 0.0 | 1.6 | 0.00 | 0.36 | 0.36 | 83 | 1012.9 |
| 20260502190541 | 12 | 26 | 3.2 | 4.8 | 0.00 | 0.36 | 0.36 | 80 | 1013.0 |
| 20260502190038 | 12 | 162 | 0.0 | 1.6 | 0.00 | 0.36 | 0.36 | 82 | 1012.8 |
| 20260502185538 | 12 | 71 | 0.0 | 1.6 | 0.00 | 0.36 | 0.36 | 83 | 1013.0 |
| 20260502185036 | 12 | 9 | 1.6 | 1.6 | 0.00 | 0.36 | 0.36 | 82 | 1013.1 |
| 20260502184531 | 12 | 37 | 0.0 | 0.0 | 0.00 | 0.36 | 0.36 | 84 | 1013.2 |
| 20260502184028 | 12 | 162 | 1.6 | 1.6 | 0.00 | 0.36 | 0.36 | 83 | 1013.1 |
| 20260502183524 | 12 | 108 | 1.6 | 3.2 | 0.00 | 0.36 | 0.36 | 83 | 1013.1 |
| 20260502183020 | 12 | 8 | 1.6 | 3.2 | 0.00 | 0.36 | 0.36 | 84 | 1013.2 |
| 20260502182515 | 12 | 17 | 1.6 | 4.8 | 0.00 | 0.36 | 0.36 | 85 | 1013.1 |
| 20260502182012 | 12 | 98 | 1.6 | 1.6 | 0.00 | 0.36 | 0.36 | 85 | 1013.2 |
| 20260502181510 | 12 | 359 | 0.0 | 1.6 | 0.00 | 0.36 | 0.36 | 85 | 1013.3 |
| 20260502181009 | 12 | 272 | 0.0 | 1.6 | 0.00 | 0.36 | 0.36 | 86 | 1013.3 |
| 20260502180505 | 12 | 109 | 1.6 | 1.6 | 0.00 | 0.36 | 0.36 | 86 | 1013.5 |
| 20260502170429 | 11 | 121 | 0.0 | 0.0 | 0.00 | 0.36 | 0.36 | 90 | 1013.4 |
| 20260502163913 | 11 | 73 | 0.0 | 1.6 | 0.00 | 0.36 | 0.36 | 92 | 1014.0 |
| 20260502163409 | 11 | 74 | 0.0 | 0.0 | 0.00 | 0.36 | 0.36 | 92 | 1014.1 |
| 20260502162908 | 11 | 124 | 0.0 | 0.0 | 0.18 | 0.36 | 0.36 | 92 | 1014.2 |
| 20260502162404 | 11 | 42 | 1.6 | 1.6 | 0.18 | 0.36 | 0.36 | 92 | 1014.2 |
| 20260502161901 | 11 | 42 | 1.6 | 1.6 | 0.00 | 0.33 | 0.33 | 92 | 1014.3 |
| 20260502161357 | 11 | 337 | 3.2 | 4.8 | 0.00 | 0.33 | 0.33 | 93 | 1014.4 |
| 20260502160855 | 11 | 88 | 0.0 | 0.0 | 0.00 | 0.33 | 0.33 | 92 | 1014.7 |
| 20260502160353 | 11 | 30 | 1.6 | 3.2 | 0.00 | 0.33 | 0.33 | 92 | 1014.8 |
| 20260502152328 | 11 | 73 | 0.0 | 0.0 | 0.00 | 0.30 | 0.30 | 92 | 1014.1 |
| 20260502151825 | 11 | 56 | 0.0 | 0.0 | 0.00 | 0.30 | 0.30 | 92 | 1014.2 |
| 20260502151322 | 11 | 48 | 0.0 | 1.6 | 0.00 | 0.30 | 0.30 | 92 | 1014.5 |
| 20260502150820 | 11 | 65 | 0.0 | 0.0 | 0.00 | 0.30 | 0.30 | 92 | 1014.4 |
| 20260502150316 | 11 | 10 | 1.6 | 1.6 | 0.00 | 0.30 | 0.30 | 91 | 1014.2 |
| 20260502130704 | 10 | 118 | 0.0 | 0.0 | 0.18 | 0.08 | 0.08 | 92 | 1013.7 |
| 20260502130202 | 11 | 90 | 0.0 | 0.0 | 0.18 | 0.08 | 0.08 | 92 | 1013.7 |
| 20260502123648 | 11 | 54 | 0.0 | 1.6 | 0.00 | 0.05 | 0.05 | 91 | 1013.6 |
| 20260502123145 | 11 | 114 | 0.0 | 0.0 | 0.00 | 0.05 | 0.05 | 92 | 1013.4 |
| 20260502122641 | 11 | 126 | 0.0 | 0.0 | 0.00 | 0.05 | 0.05 | 92 | 1013.2 |
| 20260502122138 | 11 | 76 | 0.0 | 0.0 | 0.13 | 0.05 | 0.05 | 92 | 1013.0 |
| 20260502121636 | 11 | 76 | 0.0 | 0.0 | 0.13 | 0.05 | 0.05 | 91 | 1013.3 |
| 20260502121133 | 11 | 76 | 0.0 | 0.0 | 0.00 | 0.03 | 0.03 | 90 | 1013.2 |
| 20260502120629 | 11 | 75 | 0.0 | 0.0 | 0.00 | 0.03 | 0.03 | 90 | 1013.2 |
| 20260502120126 | 11 | 80 | 0.0 | 0.0 | 0.00 | 0.03 | 0.03 | 90 | 1013.1 |
| 20260502115624 | 11 | 118 | 0.0 | 0.0 | 0.00 | 0.03 | 0.03 | 90 | 1013.2 |
| 20260502115119 | 11 | 123 | 0.0 | 0.0 | 0.00 | 0.03 | 0.03 | 90 | 1013.3 |
| 20260502114616 | 10 | 32 | 0.0 | 0.0 | 0.00 | 0.03 | 0.03 | 89 | 1013.3 |
| 20260502114114 | 11 | 81 | 0.0 | 0.0 | 0.00 | 0.03 | 0.03 | 90 | 1013.4 |
| 20260502113611 | 11 | 96 | 0.0 | 0.0 | 0.00 | 0.03 | 0.03 | 90 | 1013.3 |
| 20260502113109 | 11 | 75 | 0.0 | 0.0 | 0.00 | 0.03 | 0.03 | 90 | 1013.2 |
| 20260502112607 | 11 | 70 | 0.0 | 1.6 | 0.00 | 0.03 | 0.03 | 90 | 1013.4 |
| 20260502112104 | 11 | 20 | 1.6 | 3.2 | 0.18 | 0.03 | 0.03 | 90 | 1013.3 |
| 20260502111601 | 11 | 64 | 0.0 | 0.0 | 0.18 | 0.03 | 0.03 | 90 | 1013.4 |
| 20260502111058 | 11 | 128 | 0.0 | 0.0 | 0.00 | 0.00 | 0.00 | 90 | 1013.3 |
| 20260502110556 | 11 | 137 | 0.0 | 0.0 | 0.00 | 0.00 | 0.00 | 90 | 1013.6 |
| 20260502110054 | 11 | 47 | 0.0 | 0.0 | 0.00 | 0.00 | 0.00 | 90 | 1013.5 |
| 20260502105551 | 11 | 125 | 0.0 | 0.0 | 0.00 | 0.00 | 0.00 | 91 | 1013.5 |
| 20260502105048 | 11 | 78 | 0.0 | 0.0 | 0.00 | 0.00 | 0.00 | 90 | 1013.5 |
| 20260502104545 | 11 | 80 | 0.0 | 0.0 | 0.00 | 0.00 | 0.00 | 90 | 1013.3 |
| 20260502104043 | 11 | 81 | 0.0 | 0.0 | 0.00 | 0.00 | 0.00 | 89 | 1013.5 |
| 20260502103540 | 11 | 81 | 0.0 | 0.0 | 0.00 | 0.00 | 0.00 | 89 | 1013.4 |
| 20260502103038 | 11 | 81 | 0.0 | 0.0 | 0.00 | 0.00 | 0.00 | 89 | 1013.5 |
| 20260502102534 | 11 | 105 | 0.0 | 0.0 | 0.00 | 0.00 | 0.00 | 89 | 1013.8 |
| 20260502102031 | 11 | 109 | 0.0 | 0.0 | 0.00 | 0.00 | 0.00 | 90 | 1013.5 |
| 20260502101529 | 11 | 116 | 0.0 | 0.0 | 0.00 | 0.00 | 0.00 | 90 | 1013.6 |
| 20260502101027 | 11 | 135 | 0.0 | 0.0 | 0.00 | 0.00 | 0.00 | 90 | 1013.5 |
| 20260502100526 | 11 | 135 | 0.0 | 0.0 | 0.00 | 0.00 | 0.00 | 90 | 1013.8 |
| 20260502091500 | 11 | 171 | 0.0 | 0.0 | 0.00 | 0.00 | 0.00 | 91 | 1013.6 |
| 20260502090957 | 11 | 171 | 0.0 | 0.0 | 0.00 | 0.00 | 0.00 | 91 | 1013.7 |
| 20260502090454 | 11 | 171 | 0.0 | 0.0 | 0.00 | 0.00 | 0.00 | 91 | 1013.5 |
| 20260502071348 | 11 | 119 | 0.0 | 0.0 | 0.00 | 0.00 | 0.00 | 93 | 1012.4 |
| 20260502070847 | 11 | 119 | 0.0 | 0.0 | 0.00 | 0.00 | 0.00 | 93 | 1012.3 |
| 20260502070344 | 11 | 119 | 0.0 | 0.0 | 0.00 | 0.00 | 0.00 | 93 | 1012.6 |
| 20260502065843 | 11 | 119 | 0.0 | 0.0 | 0.00 | 0.00 | 0.00 | 93 | 1012.5 |
| 20260502065340 | 11 | 119 | 0.0 | 0.0 | 0.00 | 0.00 | 0.00 | 93 | 1012.6 |
| 20260502064838 | 11 | 119 | 0.0 | 0.0 | 0.00 | 0.00 | 0.00 | 93 | 1012.5 |
| 20260502064336 | 11 | 119 | 0.0 | 0.0 | 0.00 | 0.00 | 0.00 | 93 | 1012.7 |
| 20260502063833 | 11 | 119 | 0.0 | 0.0 | 0.00 | 0.00 | 0.00 | 93 | 1012.6 |
| 20260502063331 | 11 | 119 | 0.0 | 0.0 | 0.00 | 0.00 | 0.00 | 93 | 1012.7 |
| 20260502062828 | 11 | 119 | 0.0 | 0.0 | 0.00 | 0.00 | 0.00 | 92 | 1012.8 |
| 20260502062325 | 11 | 119 | 0.0 | 0.0 | 0.00 | 0.00 | 0.00 | 92 | 1012.8 |
| 20260502061824 | 11 | 119 | 0.0 | 0.0 | 0.00 | 0.00 | 0.00 | 92 | 1012.8 |
| 20260502061321 | 11 | 119 | 0.0 | 0.0 | 0.00 | 0.00 | 0.00 | 92 | 1012.8 |
| 20260502060817 | 11 | 119 | 0.0 | 0.0 | 0.00 | 0.00 | 0.00 | 92 | 1013.0 |
| 20260502060312 | 11 | 119 | 0.0 | 0.0 | 0.00 | 0.00 | 0.00 | 92 | 1013.0 |
| 20260502055810 | 11 | 119 | 0.0 | 0.0 | 0.00 | 0.00 | 0.00 | 92 | 1012.8 |
| 20260502055308 | 11 | 119 | 0.0 | 0.0 | 0.00 | 0.00 | 0.00 | 92 | 1012.9 |
| 20260502054807 | 11 | 119 | 0.0 | 0.0 | 0.00 | 0.00 | 0.00 | 92 | 1013.0 |
| 20260502054304 | 11 | 119 | 0.0 | 0.0 | 0.00 | 0.00 | 0.00 | 92 | 1012.8 |
| 20260502053802 | 11 | 119 | 0.0 | 0.0 | 0.00 | 0.00 | 0.00 | 91 | 1013.0 |
| 20260502053259 | 11 | 119 | 0.0 | 0.0 | 0.00 | 0.00 | 0.00 | 91 | 1013.2 |
| 20260502052756 | 11 | 119 | 0.0 | 0.0 | 0.00 | 0.00 | 0.00 | 91 | 1013.1 |
| 20260502052255 | 11 | 119 | 0.0 | 0.0 | 0.00 | 0.00 | 0.00 | 91 | 1013.2 |
| 20260502051752 | 11 | 119 | 0.0 | 0.0 | 0.00 | 0.00 | 0.00 | 91 | 1013.3 |
| 20260502051251 | 11 | 119 | 0.0 | 0.0 | 0.00 | 0.00 | 0.00 | 91 | 1013.2 |
| 20260502050746 | 11 | 119 | 0.0 | 0.0 | 0.00 | 0.00 | 0.00 | 91 | 1013.5 |